Tracking 20041 objects as of 22-Nov-2019
Live streaming from Space Station
objects crossing your sky now

SL-8 DEB

Track SL-8 DEB now!
10-day predictions


NORAD ID: 21137
Int'l Code: 1991-009P
Perigee: 1,488.0 km
Apogee: 1,728.6 km
Inclination: 74.0 °
Period: 118.2 minutes
Semi major axis: 7979 km
RCS: 0.3349 m2 (medium)
Launch date: February 12, 1991
Source: Commonwealth of Independent States (former USSR) (CIS)
Launch site: PLESETSK MISSILE AND SPACE COMPLEX (PKMTR)

Note: This is SATELLITE DEBRIS
aabbcc
Your satellite tracking list
Your tracking list is empty




NASA's NSSDC Master Catalog

Two Line Element Set (TLE):
1 21137U 91009P   19325.86296240 -.00000008 +00000-0 +57684-4 0  9993
2 21137 074.0466 009.7189 0150762 145.9610 259.4242 12.18032592278372
Source of the keplerian elements: AFSPC